This demonstration page uses our WeatherBlox Daily Observations layout. Learn more.

Left ArrowRight Arrow

36.19886, -115.1175

Hourly Observations for March 21, 2017

Temp ( °F °C ) Dew Point ( °F °C ) Humidity (%) Winds ( mph kmh ) Pressure ( in mb ) Visibility ( mi km ) Precip ( " mm )
12:53 am 00:53 Clear 71 21.7 32 undefined 24 24 S 6 9 29.89 1012 10 16 N/A
1:53 am 01:53 Clear 70 21.1 29 -1.7 22 22 SSW 5 7 29.88 1012 10 16 N/A
2:53 am 02:53 Clear 70 21.1 28 -2.2 21 21 S 8 13 29.89 1012 10 16 N/A
3:53 am 03:53 Clear 69 20.6 28 -2.2 22 22 SE 9 15 29.87 1012 10 16 N/A
4:53 am 04:53 Clear 70 21.1 28 -2.2 21 21 S 13 20 29.88 1012 10 16 N/A
5:53 am 05:53 Clear 69 20.6 24 -4.4 18 18 S 9 15 29.89 1012 10 16 N/A
6:53 am 06:53 Sunny 68 20 24 -4.4 19 19 S 12 19 29.90 1012 10 16 N/A
7:53 am 07:53 Sunny 69 20.6 23 -5 17 17 SSW 13 20 29.92 1013 10 16 N/A
8:53 am 08:53 Sunny 71 21.7 24 -4.4 17 17 S 15 24 29.93 1014 10 16 N/A
9:45 am 09:45 Sunny 75 23.9 32 undefined 21 21 SW 18 30 29.85 1011 10 16 N/A
9:53 am 09:53 Partly Cloudy 74 23.3 33 0.6 22 22 SSW 16 26 29.94 1014 10 16 N/A
10:53 am 10:53 Sunny 74 23.3 37 2.8 26 26 SSE 14 22 29.93 1014 10 16 N/A
11:53 am 11:53 Mostly Cloudy 74 23.3 34 1.1 23 23 SSW 15 24 29.93 1014 10 16 N/A
12:53 pm 12:53 Mostly Cloudy 82 27.8 37 2.8 20 20 WSW 16 26 29.91 1013 10 16 N/A
1:53 pm 13:53 Sunny 81 27.2 37 2.8 21 21 WSW 18 30 29.89 1012 10 16 N/A
2:53 pm 14:53 Mostly Sunny 82 27.8 38 3.3 21 21 W 20 31 29.88 1012 10 16 N/A
3:53 pm 15:53 Sunny 81 27.2 38 3.3 21 21 SW 17 28 29.88 1012 10 16 N/A
4:53 pm 16:53 Sunny 78 25.6 41 5 27 27 WSW 20 31 29.88 1012 10 16 N/A
5:53 pm 17:53 Sunny 77 25 41 5 28 28 SW 16 26 29.87 1012 10 16 N/A
6:53 pm 18:53 Partly Cloudy 74 23.3 43 6.1 33 33 WSW 13 20 29.89 1012 10 16 N/A
7:53 pm 19:53 Mostly Clear 73 22.8 42 5.6 33 33 SW 15 24 29.89 1012 10 16 N/A
8:53 pm 20:53 Partly Cloudy 72 22.2 43 6.1 35 35 S 5 7 29.90 1013 10 16 N/A
9:53 pm 21:53 Clear 71 21.7 44 6.7 38 38 SW 6 9 29.90 1013 10 16 N/A
10:53 pm 22:53 Clear 71 21.7 44 6.7 38 38 S 7 11 29.89 1012 10 16 N/A
11:53 pm 23:53 Partly Cloudy 69 20.6 45 7.2 42 42 SSE 9 15 29.88 1012 10 16 N/A

Powered by AerisWeather